Location: Unspecified
(17.6330°N, 0.0000°E)
Time: 03:48:40
(UTC+00:00)

Vanguard 2 - All Passes

Search period start: 18 June 2019 00:00
Search period end: 28 June 2019 00:00
Orbit: 553 x 2939 km, 32.9° (Epoch: 17 June)

Date Brightness Start Highest point End Pass type
(mag) Time Alt. Az. Time Alt. Az. Time Alt. Az.
18 Jun - 06:39:35 10° SW 06:43:49 56° SE 06:49:56 10° ENE daylight
18 Jun - 08:47:37 10° W 08:53:02 39° NNW 09:01:37 10° NE daylight
18 Jun - 10:57:08 10° WNW 11:04:45 34° N 11:16:29 10° ENE daylight
18 Jun - 13:06:18 10° NW 13:17:39 53° NNE 13:34:12 10° E daylight
18 Jun - 15:15:56 10° WNW 15:30:47 85° SSW 15:48:58 10° SE daylight
18 Jun - 17:28:32 10° W 17:43:40 39° SW 17:58:37 10° SSE daylight
19 Jun - 06:57:21 10° WSW 07:01:42 86° NNW 07:08:13 10° ENE daylight
19 Jun - 09:06:08 10° WNW 09:11:34 32° N 09:19:58 10° NE daylight
19 Jun - 11:15:28 10° NW 11:23:28 35° NNE 11:35:47 10° ENE daylight
19 Jun - 13:24:20 10° NW 13:36:08 62° NNE 13:53:18 10° ESE daylight
19 Jun - 15:34:11 10° WNW 15:49:02 70° SW 16:06:56 10° SE daylight
19 Jun - 17:48:08 10° W 18:01:51 29° SW 18:15:20 10° SSE daylight
20 Jun - 05:08:56 10° S 05:11:50 19° SE 05:15:02 10° E daylight
20 Jun - 07:15:26 10° WSW 07:19:48 54° NNW 07:26:19 10° NE daylight
20 Jun - 09:24:40 10° WNW 09:30:11 29° N 09:38:30 10° NE daylight
20 Jun - 11:33:39 10° NW 11:42:07 39° NNE 11:55:13 10° E daylight
20 Jun - 13:42:20 10° WNW 13:54:30 73° NNE 14:12:08 10° ESE daylight
20 Jun - 15:52:36 10° WNW 16:07:17 57° SW 16:24:35 10° SE daylight
20 Jun - 18:08:38 10° W 18:20:09 21° SW 18:31:27 10° S daylight
21 Jun - 05:25:56 10° SSW 05:29:35 36° SE 05:33:54 10° ENE daylight
21 Jun - 07:33:45 10° W 07:38:04 37° NNW 07:44:21 10° NE daylight
21 Jun - 09:43:09 10° NW 09:48:50 27° N 09:57:18 10° ENE daylight
21 Jun - 11:51:43 10° NW 12:00:38 44° NNE 12:14:37 10° E daylight
21 Jun - 14:00:21 10° WNW 14:12:47 87° NNE 14:30:39 10° ESE daylight
21 Jun - 16:11:18 10° WNW 16:25:31 45° SW 16:41:56 10° SSE daylight
21 Jun - 18:30:52 10° WSW 18:38:41 14° SW 18:46:21 10° S daylight
22 Jun - 05:43:30 10° SW 05:47:25 70° SSE 05:52:16 10° ENE daylight
22 Jun - 07:52:16 10° WNW 07:56:29 28° N 08:02:25 10° NE daylight
22 Jun - 10:01:30 10° NW 10:07:28 28° N 10:16:24 10° ENE daylight
22 Jun - 12:09:41 10° NW 12:19:02 52° NNE 12:33:54 10° E daylight
22 Jun - 14:18:27 10° WNW 14:31:02 78° SSW 14:48:52 10° SE daylight
22 Jun - 16:30:26 10° W 16:43:50 34° SW 16:58:56 10° SSE daylight
23 Jun - 03:55:32 10° S 03:57:27 13° SE 03:59:18 10° ESE visible
23 Jun - 06:01:28 10° WSW 06:05:24 64° NNW 06:10:20 10° NE daylight
23 Jun - 08:10:53 10° WNW 08:14:58 23° N 08:20:38 10° NE daylight
23 Jun - 10:19:40 10° NW 10:26:01 30° NNE 10:35:42 10° ENE daylight
23 Jun - 12:27:36 10° NW 12:37:19 63° NNE 12:52:56 10° ESE daylight
23 Jun - 14:36:41 10° WNW 14:49:17 63° SSW 15:06:46 10° SE daylight
23 Jun - 16:50:13 10° W 17:02:15 25° SW 17:15:27 10° SSE daylight
24 Jun - 04:11:56 10° SSW 04:15:22 25° SSE 04:18:42 10° E visible
24 Jun - 06:19:45 10° W 06:23:31 38° NNW 06:28:15 10° NE daylight
24 Jun - 08:29:27 10° NW 08:33:31 21° N 08:39:04 10° NE daylight
24 Jun - 10:37:41 10° NW 10:44:28 35° NNE 10:55:06 10° E daylight
24 Jun - 12:45:31 10° WNW 12:55:32 77° NNE 13:11:42 10° ESE daylight
24 Jun - 14:55:09 10° WNW 15:07:35 50° SW 15:24:18 10° SE daylight
24 Jun - 17:11:04 10° WSW 17:20:51 18° SW 17:31:15 10° S daylight
25 Jun - 04:29:17 10° SW 04:33:17 49° SSE 04:37:12 10° ENE visible
25 Jun - 06:38:18 10° WNW 06:41:47 26° NNW 06:46:05 10° NE daylight
25 Jun - 08:47:52 10° NW 08:52:05 21° N 08:57:49 10° NE daylight
25 Jun - 10:55:36 10° NW 11:02:48 42° NNE 11:14:27 10° E daylight
25 Jun - 13:03:30 10° WNW 13:13:43 86° SSW 13:30:08 10° SE daylight
25 Jun - 15:13:57 10° W 15:25:58 38° SW 15:41:31 10° SSE daylight
25 Jun - 17:34:25 10° SW 17:39:42 12° SSW 17:45:07 10° SSW daylight
26 Jun - 02:41:24 10° S 02:42:52 11° SSE 02:44:14 10° SE visible
26 Jun - 04:47:08 10° WSW 04:51:14 85° NNW 04:55:19 10° ENE visible
26 Jun - 06:57:01 10° WNW 07:00:09 19° N 07:03:57 10° NE daylight
26 Jun - 09:06:04 10° NW 09:10:35 22° NNE 09:16:53 10° ENE daylight
26 Jun - 11:13:26 10° NW 11:21:01 52° NNE 11:33:37 10° E daylight
26 Jun - 13:21:36 10° WNW 13:31:55 69° SSW 13:48:13 10° SE daylight
26 Jun - 15:33:15 10° W 15:44:26 29° SSW 15:58:19 10° SSE daylight
27 Jun - 02:57:14 10° SSW 03:01:00 21° SSE 03:04:09 10° E visible
27 Jun - 05:05:20 10° W 05:09:13 45° NNW 05:13:12 10° NE visible
27 Jun - 07:15:48 10° NW 07:18:36 16° N 07:21:57 10° NE daylight
27 Jun - 09:24:04 10° NW 09:29:00 25° NNE 09:36:10 10° ENE daylight
27 Jun - 11:31:17 10° NW 11:39:09 66° NNE 11:52:33 10° ESE daylight
27 Jun - 13:39:53 10° WNW 13:50:13 54° SSW 14:05:59 10° SE daylight
27 Jun - 15:53:21 10° WSW 16:03:05 21° SSW 16:14:32 10° S daylight
